Theta_e
288 287 287 287 287 287 287 287 287 287 287 287 287 287 287 287 287 287 287 287 287 287 287 288 288 288 288 288 288 288 288 288 289 289 290 289 289 289 289 288 288 288 288 289 290 290 291 291 291 291 290 290 290 290 291 291 291 291 292 292 292 293 293 293 292 292 291 292 292 292 292 292 293 294 295 296 296 297 297 297 297 297 297 298 298 298
287 287 287 287 287 287 287 287 287 287 287 287 287 287 287 287 287 287 287 287 287 288 288 288 288 288 288 287 287 287 288 289 289 289 289 289 288 288 288 288 287 287 288 288 288 289 289 289 289 289 289 290 290 290 291 291 291 292 292 293 293 293 293 292 292 291 292 292 292 292 293 293 293 294 295 296 296 296 296 296 296 297 297 298 298 298
286 286 287 287 287 287 287 287 287 287 287 287 287 287 287 287 287 287 287 288 288 288 288 288 288 287 287 287 287 288 288 288 288 288 288 287 287 287 287 287 287 287 287 288 288 288 288 288 289 289 289 290 290 291 291 291 291 292 292 292 292 292 292 291 291 291 291 292 293 293 293 294 294 295 295 296 296 296 296 296 296 297 297 297 298 298
287 287 287 287 287 287 287 287 287 287 287 287 287 287 287 287 287 287 288 288 288 288 287 287 287 287 287 287 287 287 287 287 287 287 286 286 286 286 286 286 287 287 287 287 288 288 288 288 289 289 290 290 291 291 291 291 291 291 291 291 291 291 290 290 290 291 291 292 292 293 293 294 294 295 295 295 295 295 296 296 296 296 298 297 297 297
287 287 288 288 288 288 287 287 287 287 287 287 287 287 287 287 288 288 288 288 287 287 287 287 287 287 287 287 287 286 286 286 286 286 286 286 286 286 286 286 286 287 287 287 288 288 288 289 289 289 290 291 291 291 291 291 291 291 290 290 290 290 290 290 290 290 291 291 292 292 293 293 294 294 295 295 295 295 295 295 296 297 297 297 296 297
288 288 288 287 287 287 287 287 287 287 287 287 288 288 288 288 288 288 287 287 286 286 286 286 286 286 286 286 285 285 285 285 285 285 285 285 285 285 285 286 286 286 287 287 287 288 288 289 289 290 291 291 291 291 291 290 290 289 289 289 289 289 289 289 290 290 290 291 291 292 292 293 293 293 294 294 294 295 295 296 296 297 297 296 296 296
288 287 287 287 287 287 287 287 287 287 287 288 288 288 288 288 287 286 286 286 286 286 285 285 285 285 285 284 284 284 284 284 284 284 284 284 285 285 285 285 286 286 286 287 287 288 288 289 290 291 291 291 290 290 289 289 288 288 288 288 288 288 289 289 289 290 290 291 291 291 292 292 292 292 293 294 294 295 295 296 296 296 296 296 296 296
287 287 286 286 287 287 287 287 287 287 288 288 288 287 287 286 286 285 285 285 285 285 284 284 284 284 284 284 284 284 284 284 284 283 284 284 284 284 285 285 286 286 287 287 288 288 289 290 290 290 290 289 289 288 288 288 287 288 288 288 288 288 289 289 289 290 290 291 291 291 291 292 292 292 293 294 294 294 294 295 296 296 296 295 296 296
286 286 286 286 287 287 287 287 288 288 287 287 287 286 285 285 285 284 284 284 284 283 283 283 283 283 283 283 283 283 283 283 283 283 283 284 284 284 285 285 286 286 287 288 288 289 289 289 289 288 288 287 287 287 287 287 287 287 287 288 288 288 289 289 289 290 290 290 291 291 292 292 292 293 293 293 294 294 295 295 295 295 295 295 295 296
286 286 286 287 287 287 288 287 287 286 286 285 285 285 285 284 284 284 283 283 283 283 283 283 283 283 283 283 283 283 283 283 283 284 284 284 284 285 285 285 286 287 287 288 288 288 287 287 287 286 286 286 286 286 286 287 287 287 287 288 288 288 288 289 289 289 290 290 291 291 292 292 292 293 293 293 294 294 295 295 295 294 294 294 295 295
286 287 287 287 287 287 287 286 286 285 285 284 284 284 284 284 283 283 283 283 283 283 283 283 283 283 283 283 283 283 283 283 283 283 284 284 284 285 285 286 287 287 287 286 286 285 285 285 285 285 285 285 286 286 286 286 287 287 287 287 288 288 288 289 289 289 290 290 291 291 291 292 292 292 292 293 294 294 294 294 294 294 294 294 295 295
287 287 288 287 286 286 285 285 285 284 284 284 284 284 284 283 283 283 283 283 283 283 283 283 283 283 283 283 283 283 283 283 283 283 283 284 284 285 286 286 285 285 284 284 284 284 284 284 284 284 285 285 285 285 286 286 286 287 287 287 288 288 288 288 289 289 289 290 291 291 292 292 292 292 293 293 294 294 294 294 294 294 294 294 295 295
287 287 286 285 285 285 285 284 284 284 284 284 284 283 283 283 283 283 282 282 282 283 283 283 283 283 283 283 283 283 283 283 283 284 284 285 286 286 285 284 283 283 283 283 283 283 283 283 284 284 284 284 285 285 285 286 286 286 287 287 287 287 288 288 289 289 290 290 291 291 292 292 292 293 293 293 293 293 293 293 293 293 294 294 294 295
286 285 285 285 285 284 284 284 284 284 283 283 283 283 283 282 282 282 282 282 283 283 283 283 283 283 283 283 283 283 283 284 284 284 285 285 285 284 283 283 283 283 283 283 283 283 283 283 283 283 284 284 284 284 285 285 285 286 286 287 287 288 288 289 289 290 290 291 291 292 292 292 292 293 293 293 293 293 293 293 293 293 294 294 294 294
285 285 285 284 284 284 284 284 283 283 283 283 283 282 282 282 282 282 282 283 283 283 283 284 284 284 284 284 284 284 284 285 285 285 285 284 283 283 283 283 283 283 282 282 282 282 283 283 283 283 283 283 284 284 284 285 285 286 286 287 287 288 288 289 289 290 290 291 291 292 292 292 292 292 292 292 292 293 293 293 293 293 293 294 293 293
285 284 284 284 284 284 283 283 283 283 282 282 282 282 282 282 282 283 283 283 284 284 284 284 284 284 284 284 284 285 285 285 285 284 283 283 283 283 282 282 282 282 282 282 282 282 282 283 283 283 283 283 284 284 285 285 286 286 287 287 288 288 289 289 290 290 291 291 292 292 292 291 291 291 292 292 292 292 292 293 293 293 293 293 293 292
284 284 284 284 283 283 283 282 282 282 282 282 282 282 282 283 283 283 284 284 284 284 284 284 284 284 284 284 284 285 285 284 283 283 283 282 282 282 282 282 282 282 282 282 282 282 282 283 283 283 283 283 284 284 285 286 286 287 288 288 288 289 289 289 290 291 291 291 291 291 290 290 290 290 291 291 291 292 292 293 293 293 293 292 292 292
284 284 284 283 283 282 282 282 282 282 282 282 282 283 283 283 284 284 284 284 284 284 284 284 284 284 284 284 284 284 283 283 283 282 282 282 282 282 282 282 282 282 282 282 282 282 282 283 283 283 283 284 284 285 286 287 287 288 288 288 288 288 288 289 290 290 289 289 289 289 289 289 289 290 290 291 291 291 292 292 293 293 292 292 291 291
284 283 283 282 282 282 282 282 282 282 282 283 283 284 284 284 284 284 284 283 283 283 283 283 283 283 283 283 283 283 282 282 282 282 282 282 282 282 282 282 282 282 282 282 282 282 283 283 283 283 284 284 285 286 287 287 287 287 287 287 288 288 288 288 288 288 288 288 288 288 288 289 289 290 290 290 291 291 292 292 292 292 291 291 291 291
283 282 282 282 282 281 282 282 282 282 283 284 284 284 284 284 283 283 282 282 282 282 282 282 282 282 282 282 282 282 282 282 282 282 282 282 282 282 282 282 282 282 282 282 282 283 283 283 283 284 285 286 286 286 286 285 285 286 286 287 287 287 287 287 287 287 287 288 288 288 289 289 290 290 290 290 291 292 292 292 292 291 291 290 290 291
282 282 282 282 282 282 282 282 283 283 284 284 284 283 283 282 282 282 282 282 282 282 282 282 282 282 282 283 283 283 283 283 282 282 282 282 282 282 282 282 282 282 282 282 283 283 283 284 285 286 285 285 284 284 284 284 285 285 286 286 286 286 286 286 287 287 287 288 288 289 289 289 290 290 290 291 292 292 292 291 291 291 290 290 290 291
282 282 282 282 282 282 283 283 284 284 284 283 283 282 282 282 282 282 282 282 282 282 282 282 283 283 283 283 283 283 283 282 282 282 282 282 282 282 282 282 282 282 282 283 283 284 284 285 284 284 283 283 283 284 284 284 285 285 285 285 286 286 286 286 287 287 287 288 288 288 289 289 290 291 291 292 292 291 291 291 290 290 290 291 291 291
282 282 282 283 283 283 284 284 284 283 283 282 282 282 282 282 282 282 282 282 282 283 283 282 283 283 283 283 283 282 282 282 282 281 282 282 282 282 282 282 282 283 283 283 284 284 284 284 283 283 283 283 283 284 284 284 285 285 285 285 285 286 286 286 287 287 287 288 288 288 289 290 291 291 292 291 291 290 290 290 290 290 290 291 291 292
283 283 283 284 284 284 284 284 283 283 282 282 282 282 282 282 282 282 282 282 282 282 282 282 283 283 283 283 282 282 281 281 281 281 282 282 282 282 282 282 283 283 283 283 283 283 283 283 283 283 283 283 283 284 284 284 284 285 285 285 285 286 286 286 287 287 287 288 288 289 290 290 291 291 290 290 289 289 289 290 290 290 290 291 291 292
284 284 284 285 285 284 284 283 283 282 282 282 282 282 282 282 282 282 282 282 282 282 282 283 283 283 282 282 282 281 281 281 281 282 282 282 282 282 282 282 283 283 283 283 283 283 283 283 283 283 283 283 283 283 284 284 284 285 285 285 285 286 286 286 287 287 287 288 288 289 290 290 290 290 289 289 289 289 289 290 290 290 290 291 291 291
284 285 285 284 284 283 283 283 282 282 282 282 282 282 282 282 282 282 282 282 282 283 283 283 283 282 282 282 281 281 281 281 281 282 282 282 282 282 282 282 282 282 282 282 282 282 283 283 283 283 283 283 283 283 284 284 284 285 285 285 286 286 286 286 287 287 287 288 289 289 289 290 289 289 289 289 289 289 289 290 290 290 290 291 291 291
284 284 283 283 283 282 282 282 282 282 282 282 282 282 282 282 282 282 282 282 282 283 283 282 282 282 282 282 282 281 281 281 281 282 282 282 282 282 282 282 282 282 282 282 282 282 283 283 283 283 283 283 283 283 283 284 284 285 285 285 285 286 286 286 287 287 287 288 289 289 289 289 288 288 288 289 289 289 290 290 290 290 291 291 291 291
283 283 282 282 282 282 282 282 282 282 282 282 282 282 282 282 282 282 282 282 282 282 282 282 282 282 282 282 282 281 281 281 281 281 282 282 282 282 282 282 282 282 282 282 282 282 283 283 283 283 283 283 283 283 283 284 284 284 285 285 285 285 286 286 286 287 287 288 288 288 288 288 288 288 289 289 290 290 290 290 290 290 291 291 291 291
282 281 281 281 281 281 281 281 281 281 281 281 281 282 282 282 282 282 282 282 282 282 282 282 282 282 282 282 281 281 281 281 281 281 281 282 282 282 282 282 282 282 282 282 283 283 283 283 283 283 283 283 283 283 283 284 284 284 284 285 285 285 286 286 286 287 287 287 287 287 288 288 288 289 289 289 289 289 289 289 289 289 290 290 290 290
281 281 280 281 281 281 281 280 280 280 281 281 281 281 281 282 282 282 282 282 282 282 282 282 282 282 282 281 281 281 281 281 281 281 281 281 282 282 282 282 282 282 282 282 283 283 283 283 283 283 283 283 283 283 284 284 284 284 284 284 285 285 285 286 286 286 286 287 287 288 288 288 288 288 288 287 287 287 288 288 288 289 289 289 289 289
280 280 280 280 280 280 280 280 280 280 280 281 281 281 281 281 281 281 281 282 282 282 282 282 282 281 281 281 281 281 281 281 281 281 281 281 281 282 282 282 282 282 282 282 283 283 283 283 283 283 283 283 283 283 283 284 284 284 284 284 285 285 285 286 286 286 286 287 287 287 287 287 287 286 286 286 287 287 287 288 288 288 289 289 289 289
280 280 280 280 280 280 280 280 280 280 280 281 281 281 281 281 281 281 281 281 281 281 281 281 281 281 281 281 281 281 281 281 281 281 281 281 281 282 282 282 282 282 282 282 282 283 283 283 283 283 283 283 283 283 284 284 284 284 285 285 285 285 285 285 286 286 286 286 286 286 285 285 285 285 286 286 286 287 287 287 288 288 289 289 289 290
280 280 280 280 280 280 281 281 281 281 281 281 281 281 281 281 281 281 281 281 281 281 281 281 281 281 281 281 281 281 281 281 281 281 281 281 282 282 282 282 282 282 282 282 282 282 283 283 283 283 283 283 283 284 284 284 285 285 285 285 285 285 285 285 285 285 285 284 284 284 284 284 285 285 285 285 286 286 287 287 288 288 289 289 289 290
280 280 281 281 281 281 281 281 281 281 281 281 281 281 281 281 281 281 281 281 281 281 281 281 281 281 281 281 281 281 281 281 281 281 281 281 282 282 282 282 282 282 282 282 282 282 283 283 283 283 283 283 284 284 284 284 285 285 284 284 284 284 284 284 284 284 283 283 284 284 284 284 284 284 284 285 285 286 286 287 287 288 288 289 289 290
280 281 281 281 281 281 281 281 281 281 281 281 281 281 281 281 281 281 281 281 281 281 281 281 281 281 281 281 281 281 281 281 281 281 281 281 281 282 282 282 282 282 282 282 282 282 283 283 283 283 284 284 284 284 284 284 284 283 283 283 283 283 283 283 283 283 283 283 283 283 283 283 284 284 284 284 285 285 286 287 287 288 288 289 290 290
281 281 281 281 281 281 281 281 281 281 281 281 280 280 280 280 280 280 280 280 280 280 280 281 281 281 281 281 281 281 281 281 281 281 281 281 281 281 281 282 282 282 282 282 282 282 283 283 283 284 284 284 284 284 284 283 283 283 282 282 282 282 282 283 283 283 283 283 283 283 283 283 284 284 284 285 285 286 286 287 288 288 289 289 290 290
281 281 281 281 281 281 281 281 281 280 280 280 280 280 280 280 280 280 280 280 280 280 280 280 280 280 280 280 281 281 281 281 281 281 281 281 281 281 281 281 282 282 282 282 282 283 283 283 283 284 284 284 284 284 283 283 282 282 282 282 282 282 282 282 283 283 283 283 283 283 284 284 284 284 285 285 286 286 287 287 288 289 289 290 290 291
281 281 281 281 281 281 281 280 280 280 280 280 280 280 280 280 280 280 280 280 280 280 280 280 280 280 280 280 280 281 281 281 281 281 281 281 281 281 281 281 282 282 282 282 282 282 283 283 283 283 283 283 283 283 282 282 282 282 282 282 282 282 282 283 283 283 283 283 284 284 284 284 285 285 285 286 286 287 287 287 288 289 289 290 291 291
281 281 281 281 280 280 280 280 280 280 280 280 280 280 280 280 280 280 280 280 280 280 280 280 280 280 280 280 280 281 281 281 281 281 281 281 281 281 281 281 281 282 282 282 282 283 283 283 283 283 283 282 282 282 282 282 282 281 282 282 282 282 283 283 283 283 284 284 284 284 285 285 285 285 286 286 287 287 288 288 289 289 289 290 290 291
281 281 280 280 280 280 280 280 280 280 280 280 280 280 280 280 280 280 280 280 280 280 280 280 280 280 280 280 281 281 281 281 281 281 281 281 281 281 281 281 281 282 282 282 283 283 284 284 283 283 282 282 282 281 281 281 281 281 282 282 282 283 283 283 283 284 284 284 284 285 285 285 286 286 287 287 288 288 288 289 289 289 290 290 290 290
281 280 280 280 280 280 280 280 280 280 280 280 280 280 280 280 280 280 280 280 280 280 280 280 280 280 280 280 280 281 281 281 281 281 281 281 281 281 281 281 282 282 282 283 283 283 283 283 282 282 281 281 281 281 281 281 281 281 282 282 282 283 283 283 284 284 284 284 285 285 285 286 286 287 287 288 288 288 289 289 289 290 290 290 290 290
280 280 280 280 280 280 280 280 280 280 280 280 280 280 280 280 280 280 280 280 280 280 280 280 280 280 281 281 281 281 281 281 281 281 281 281 281 281 282 282 282 283 283 283 283 283 282 282 281 281 281 281 281 281 281 281 281 281 282 282 282 283 283 284 284 284 284 285 285 285 285 286 286 287 287 288 288 289 290 290 290 291 291 291 291 292
280 280 280 280 279 280 280 280 280 280 280 280 280 280 280 280 280 280 280 280 280 280 280 280 280 280 281 281 281 281 281 281 281 281 281 281 282 282 282 283 283 283 283 283 282 281 281 281 280 280 280 280 280 280 280 281 281 281 282 282 283 283 284 284 284 284 284 285 285 285 286 286 287 287 288 288 289 290 291 291 291 292 292 292 292 293
279 279 279 279 279 279 279 279 279 279 279 279 279 280 280 280 280 280 280 280 280 280 280 280 280 280 281 281 281 281 281 281 281 281 281 282 282 282 283 282 282 282 282 281 281 280 280 280 280 280 280 280 280 280 280 281 281 281 282 282 283 283 284 284 284 284 284 285 285 286 286 287 287 288 288 289 290 291 292 292 292 292 292 293 293 294
279 279 279 279 279 279 279 279 279 279 279 279 279 279 280 280 280 280 280 280 280 280 280 280 280 281 281 281 281 281 281 281 281 281 282 282 282 282 282 281 281 281 281 280 280 280 279 279 279 279 280 280 280 280 280 281 281 282 282 283 283 284 284 284 284 284 285 285 286 286 287 288 288 288 289 290 291 292 292 292 292 292 293 293 293 294
279 279 279 279 279 279 279 279 279 279 279 279 279 279 280 280 280 280 280 280 280 280 280 280 281 281 281 281 281 281 281 281 281 282 282 282 282 281 281 281 281 280 280 280 279 279 279 279 279 279 280 280 280 280 281 281 282 282 282 283 283 284 284 284 284 285 285 285 286 287 288 288 288 289 290 291 291 292 292 293 293 293 293 293 293 294
279 279 279 279 279 279 279 279 279 279 279 279 279 279 280 280 280 280 280 280 280 280 280 281 281 281 281 281 281 281 281 281 282 282 282 281 281 281 281 281 280 280 279 279 279 279 279 280 280 280 280 280 280 281 281 282 282 283 283 283 283 284 284 284 285 285 286 286 287 287 288 288 289 290 290 291 292 292 293 293 293 293 293 293 293 294
279 279 279 279 279 279 279 279 279 279 279 279 279 279 280 280 280 280 280 280 280 280 280 280 280 281 281 281 281 281 281 282 282 282 281 281 280 280 280 280 280 279 279 279 279 280 280 280 281 281 281 280 281 281 282 282 283 283 283 283 284 284 284 285 285 286 286 287 287 288 288 289 289 290 290 291 292 292 293 293 293 293 293 293 293 293
278 278 278 278 279 279 279 279 279 279 279 279 279 280 280 280 280 280 280 280 280 280 280 280 280 281 281 281 281 281 282 282 282 281 281 280 280 280 280 280 279 279 279 279 279 280 280 281 281 282 282 281 281 282 282 283 283 283 283 283 284 284 285 285 286 286 287 287 288 289 289 289 290 290 290 291 291 292 292 293 293 293 293 293 293 293
278 278 278 278 278 279 279 279 279 279 279 279 279 280 280 280 280 280 280 280 280 280 280 280 281 281 281 281 281 282 282 282 281 281 280 280 280 280 280 280 279 279 279 279 280 280 280 281 282 282 282 283 283 283 283 283 283 283 284 284 285 285 285 286 286 286 287 287 288 289 289 290 290 290 290 291 291 292 292 292 293 293 293 293 293 293
278 278 278 278 278 278 278 279 279 279 279 279 280 280 280 280 280 280 280 280 280 280 280 281 281 281 281 281 282 282 281 281 281 280 280 280 280 280 280 279 279 279 279 279 280 280 280 280 281 282 282 283 283 283 283 283 283 283 284 285 286 286 286 286 286 286 287 288 288 289 289 290 290 290 290 291 291 291 292 292 292 293 293 293 293 293
Wind_Speed
29 31 31 31 32 32 33 31 31 31 32 31 30 30 29 29 29 29 30 30 31 31 31 31 31 32 32 32 32 32 32 32 33 34 36 36 36 36 37 38 40 40 41 40 39 39 39 39 39 39 39 39 38 38 38 37 37 36 36 35 34 34 34 35 36 37 38 38 39 39 39 39 39 38 37 35 33 31 31 31 31 31 32 33 34 35
31 31 31 31 31 31 32 31 30 30 31 31 31 31 30 31 31 30 30 29 29 29 29 29 29 30 30 30 29 29 29 31 33 35 36 36 36 37 38 40 41 42 41 40 40 39 39 39 39 38 38 38 38 37 36 36 35 34 34 34 35 35 36 36 37 37 38 38 38 38 38 38 37 37 36 35 33 33 32 32 31 31 31 32 33 34
30 31 31 30 29 30 30 31 31 30 31 31 31 31 31 31 30 29 28 27 27 27 28 28 28 28 28 28 28 29 30 32 34 34 35 36 37 38 40 42 43 42 41 40 39 38 38 38 38 37 37 37 36 35 34 34 33 34 34 35 36 37 38 38 38 37 37 37 37 37 36 36 35 35 35 34 34 34 34 33 31 31 31 33 34 33
28 28 29 29 29 29 30 31 31 31 31 30 31 31 30 29 27 26 25 25 27 28 29 29 28 28 28 29 30 30 31 32 33 34 35 36 38 40 42 43 42 41 40 39 37 37 36 36 36 36 35 35 34 33 33 33 34 35 36 37 38 39 39 39 38 38 37 37 37 36 35 35 34 33 33 34 35 35 34 33 32 32 33 34 34 33
25 26 28 28 28 29 30 31 31 31 31 30 29 28 27 25 23 23 24 26 28 29 29 28 28 28 28 29 30 30 31 32 33 34 36 38 40 41 42 42 41 39 38 37 36 35 35 35 34 34 34 33 33 33 33 34 35 36 37 38 39 39 39 39 39 38 37 37 36 35 35 34 33 32 33 34 35 34 33 32 32 33 34 34 33 31
26 27 28 28 28 29 31 31 30 29 28 27 26 24 22 22 22 23 25 28 29 29 28 28 28 29 29 29 29 30 31 32 34 36 37 38 39 40 40 39 38 37 36 35 34 34 34 34 33 33 33 33 33 33 34 36 37 38 39 40 40 40 40 39 39 38 37 36 35 35 34 34 33 33 33 34 34 33 33 32 32 33 33 33 31 30
27 28 28 29 30 30 30 29 28 26 24 22 22 21 21 23 24 26 28 28 28 27 29 29 29 29 29 29 29 30 31 33 34 36 36 37 37 38 37 37 36 35 34 34 34 33 33 33 32 32 32 33 33 35 36 38 39 40 41 41 41 40 39 38 38 37 36 35 34 34 34 33 33 33 34 34 33 32 31 31 32 32 31 31 30 29
28 29 29 29 30 30 28 25 23 21 20 19 19 22 24 26 28 28 29 28 28 28 29 30 30 30 29 29 29 30 31 32 33 34 34 35 35 35 35 34 34 34 33 33 33 32 32 32 32 32 33 34 35 37 39 41 42 42 41 41 40 39 38 37 36 35 34 34 33 33 33 33 33 33 34 33 32 31 31 31 30 30 29 29 28 27
27 29 30 30 28 26 23 21 18 17 18 20 22 24 26 27 28 29 30 30 30 30 30 31 31 30 30 29 29 30 31 32 32 33 33 33 33 33 34 34 33 33 32 31 30 30 30 31 32 33 34 36 38 40 42 42 42 42 41 40 38 37 36 35 34 34 33 33 32 32 32 32 33 33 33 32 31 30 30 30 29 29 29 28 27 26
28 28 28 26 22 18 16 17 18 20 21 24 26 26 24 24 26 28 31 33 33 33 31 30 30 30 30 30 30 30 30 32 32 33 33 33 34 34 34 33 31 30 29 28 28 29 30 31 33 35 37 39 41 42 42 42 41 40 39 38 36 35 34 33 33 33 33 32 32 32 32 33 33 33 32 31 30 30 30 29 29 28 29 28 26 25
27 25 21 17 14 14 15 19 22 24 26 27 27 26 25 25 26 27 28 30 33 33 32 30 29 29 29 30 30 29 30 31 32 33 33 32 32 31 30 28 27 26 26 27 28 30 32 33 35 37 39 40 41 41 41 40 39 37 36 35 34 33 33 33 33 33 33 32 32 33 33 33 33 32 31 30 29 29 29 29 29 29 28 27 26 25
20 16 12 12 15 18 21 24 25 25 26 25 24 25 27 29 29 28 27 27 30 31 31 30 30 29 28 28 29 29 30 31 32 32 31 29 26 24 23 23 23 24 26 28 30 32 33 34 36 37 38 39 39 39 38 37 36 35 34 34 33 33 33 33 33 33 33 34 34 34 34 34 33 32 30 28 28 28 29 29 29 29 28 27 26 26
13 12 14 17 20 22 23 24 25 25 25 24 22 21 24 29 31 30 28 28 29 30 30 30 30 29 29 28 28 29 29 30 30 29 26 22 19 19 20 22 24 26 29 31 31 32 32 33 34 35 35 36 36 36 36 35 35 34 34 34 33 33 33 33 34 34 35 35 36 36 35 34 32 30 29 28 28 29 30 30 30 29 28 28 27 27
12 15 18 19 20 20 21 22 22 22 23 24 24 25 28 30 31 29 28 28 29 29 29 29 29 29 28 27 26 27 28 28 27 24 20 18 18 21 23 26 29 31 31 32 31 31 31 31 31 32 33 33 34 34 34 34 34 34 34 34 34 33 34 34 34 35 36 37 37 36 34 32 30 29 29 29 29 30 31 31 31 30 29 29 29 28
15 16 14 13 15 18 20 22 22 23 24 27 28 29 30 30 29 27 25 25 27 28 28 27 28 28 27 25 25 25 25 22 20 19 20 21 23 25 27 29 32 33 31 30 30 30 29 29 30 31 32 33 34 34 34 34 34 34 34 34 34 34 35 35 36 37 38 39 38 36 33 31 30 29 30 30 31 32 32 32 31 31 30 30 30 29
17 15 11 10 13 18 22 23 24 25 27 29 29 28 27 26 26 25 24 24 25 25 23 21 20 21 23 25 24 21 19 17 17 20 24 27 29 30 30 30 32 32 31 29 29 29 29 29 30 31 32 33 33 34 34 34 34 35 35 35 35 36 36 37 38 38 38 37 36 33 32 31 31 31 31 32 32 32 32 32 31 31 31 30 30 30
18 17 15 13 16 20 25 26 26 27 27 28 28 27 25 25 24 24 23 22 22 21 19 13 10 9 12 21 23 19 16 18 22 26 29 31 33 32 30 29 29 30 30 29 29 28 29 29 30 31 32 32 32 33 33 34 34 35 35 36 36 37 37 38 38 37 36 34 33 33 33 33 33 34 34 34 34 33 33 32 32 31 31 30 30 30
18 18 18 17 19 22 26 27 26 26 27 26 26 26 25 24 23 22 21 21 19 18 16 13 10 8 8 8 16 23 22 24 27 29 30 31 31 31 28 27 27 29 29 29 29 29 29 30 31 32 32 33 33 33 33 33 34 35 36 37 37 37 37 37 37 37 36 35 35 35 35 35 35 35 35 34 34 34 33 33 32 31 30 30 30 31
20 21 21 21 22 25 26 26 25 25 25 25 24 24 22 21 20 20 20 22 22 21 19 14 11 11 12 14 22 28 28 27 28 28 27 28 29 29 27 26 27 28 29 29 30 30 30 31 33 34 33 32 31 31 32 33 34 36 37 37 37 37 38 38 38 38 38 37 37 37 36 36 35 35 35 34 34 34 34 33 32 31 30 30 31 31
23 24 24 24 24 25 25 25 25 25 23 23 22 20 18 20 22 24 25 25 25 24 23 19 17 17 20 24 27 29 27 25 25 25 25 26 28 29 27 26 26 27 28 29 29 29 30 30 31 31 29 27 27 28 31 34 36 37 37 38 38 38 38 38 38 38 38 37 37 36 36 35 35 35 35 35 35 34 33 32 31 30 30 31 31 31
25 25 26 26 25 24 23 25 25 23 22 21 21 20 21 24 25 25 25 24 24 24 23 20 20 22 25 26 27 28 26 25 24 24 24 24 25 26 26 25 25 25 27 29 30 29 28 27 26 26 25 27 29 32 34 35 36 37 37 38 38 39 39 39 38 38 37 37 36 36 35 35 35 35 35 35 34 32 31 30 30 30 30 31 31 31
26 27 28 27 26 24 24 23 23 22 22 23 24 25 25 25 24 24 24 23 23 22 21 21 24 27 27 27 28 28 26 25 24 24 22 16 18 25 27 26 25 26 27 27 26 25 25 25 26 27 29 31 32 34 34 35 36 37 37 38 39 39 39 39 39 38 37 37 36 36 35 35 35 35 34 33 31 30 30 30 30 31 31 31 32 32
27 28 28 27 25 23 22 21 22 23 25 26 27 26 25 24 24 24 24 23 23 23 25 27 29 29 28 27 26 25 25 24 24 23 20 12 14 22 27 26 25 24 24 25 25 26 27 28 29 30 31 32 33 33 34 35 36 37 37 37 38 38 38 38 38 38 37 37 37 36 36 36 35 34 32 31 31 31 31 32 32 32 32 32 33 33
27 27 27 25 23 22 22 24 26 28 29 29 29 28 27 26 25 25 25 25 25 26 28 28 27 26 24 24 24 25 25 24 23 22 18 12 13 20 26 25 23 23 25 26 28 28 28 29 30 30 30 31 32 33 34 35 35 36 36 36 36 37 37 37 37 37 37 37 37 37 37 36 35 34 33 33 33 33 33 34 34 33 33 33 33 33
26 26 25 25 25 26 28 30 31 32 32 31 31 30 29 28 27 27 27 26 26 26 25 23 19 17 20 23 25 26 26 25 23 21 18 14 17 22 26 25 23 23 26 28 29 28 28 29 29 29 30 30 30 32 33 34 35 35 35 35 36 36 36 36 36 37 37 37 37 37 36 35 34 34 35 35 35 35 35 35 35 35 34 33 33 33
26 27 27 28 29 31 32 33 33 33 33 32 31 30 29 28 27 27 25 24 23 22 20 16 12 12 17 21 22 23 25 24 23 21 19 17 17 20 25 25 24 23 26 28 28 28 27 29 30 31 30 30 30 31 32 33 34 34 34 34 35 35 35 36 36 36 37 37 36 36 35 34 35 36 36 36 37 37 36 36 36 35 35 34 34 34
25 26 28 30 31 32 33 33 33 33 32 32 31 30 30 28 26 23 21 21 21 20 17 11 9 10 12 14 17 21 24 24 22 21 21 20 17 17 21 24 24 24 25 27 28 28 28 29 30 31 30 29 30 31 32 32 32 33 33 33 33 34 34 35 36 36 36 36 35 35 36 36 37 38 38 38 38 37 37 36 35 35 34 34 33 33
25 27 29 30 31 32 32 32 32 31 31 31 30 30 28 26 23 20 19 21 22 20 16 11 10 9 8 7 14 21 25 24 22 21 20 19 14 13 20 23 24 24 24 25 28 29 28 28 28 29 28 28 28 29 30 29 29 30 31 32 33 34 34 35 35 35 35 36 36 37 37 38 38 38 37 37 36 36 35 35 34 34 33 32 31 30
27 29 30 30 31 31 31 31 30 30 29 29 29 28 26 24 21 20 21 23 22 20 15 12 10 9 8 10 16 22 23 23 22 21 20 18 14 15 22 24 24 24 23 22 24 26 26 26 25 25 25 25 26 26 26 26 27 28 30 32 33 34 34 34 34 34 35 36 36 37 37 36 36 36 35 35 35 35 35 35 34 33 31 29 28 27
29 30 29 29 29 29 29 29 29 28 28 28 27 26 25 23 22 22 23 23 22 19 16 14 13 12 11 12 13 14 15 19 21 21 20 16 13 15 22 23 23 23 22 17 13 13 17 21 23 23 23 23 24 24 25 26 27 28 29 30 30 31 31 31 32 33 34 34 34 34 34 34 34 35 36 36 36 36 36 35 33 31 29 27 26 25
29 29 29 29 28 28 28 27 27 27 26 26 25 25 24 23 22 22 22 22 20 19 18 17 16 16 14 9 6 5 6 17 23 23 22 17 15 17 22 20 21 23 22 17 9 5 8 11 19 24 24 24 25 26 27 28 28 27 28 27 27 28 29 30 31 32 32 32 32 32 33 34 35 36 36 36 36 35 35 34 33 30 28 26 25 25
28 28 28 28 28 27 27 26 26 25 25 25 24 23 23 22 21 21 20 20 20 20 20 20 19 19 18 12 8 8 8 20 26 26 24 20 19 21 22 20 20 22 23 22 14 8 7 5 14 24 26 26 26 27 28 27 26 26 26 25 25 26 29 29 29 29 30 30 31 32 33 34 35 35 35 35 34 34 34 33 32 30 28 26 25 24
28 28 28 27 27 26 25 25 25 24 24 24 23 23 22 22 22 21 21 21 21 21 21 20 20 19 19 17 15 16 19 24 27 27 25 22 20 20 22 21 20 21 23 23 21 16 12 8 13 21 26 27 27 26 26 24 23 23 23 23 23 25 29 29 29 28 28 29 30 31 32 32 32 33 33 33 33 33 32 32 31 30 29 26 24 24
27 27 27 26 25 25 24 24 24 23 23 23 23 23 22 22 22 22 22 21 22 22 22 21 21 20 19 17 17 19 23 26 27 27 26 23 20 19 22 21 20 20 20 19 20 20 16 16 15 15 17 24 27 26 24 22 21 21 22 23 24 26 28 28 28 28 27 28 29 29 30 30 31 31 31 31 31 31 30 30 30 29 29 27 25 23
26 26 25 24 24 24 24 23 23 23 23 23 23 22 22 22 23 23 23 23 23 24 24 24 23 22 21 19 16 17 22 26 28 28 27 25 22 21 21 20 21 20 17 16 14 12 10 14 16 15 11 15 21 24 23 21 22 23 26 26 26 26 26 26 26 27 27 27 28 28 29 30 30 30 30 29 29 29 29 29 29 29 29 28 27 25
24 23 23 23 23 23 23 23 23 23 23 23 23 23 23 24 24 24 24 25 25 26 26 25 25 25 25 24 22 21 24 28 30 30 29 27 25 23 21 21 22 21 17 16 13 10 8 10 14 17 15 10 12 18 23 26 27 27 27 26 26 26 26 26 27 27 27 27 27 27 28 29 29 29 29 29 29 29 29 29 29 29 29 29 29 29
22 22 22 23 23 23 23 23 23 23 23 23 24 24 24 24 25 26 26 26 27 27 27 27 27 27 27 26 27 27 28 30 31 32 32 31 30 27 24 23 24 23 19 16 15 13 11 10 11 12 11 8 7 11 20 28 30 28 26 25 25 25 26 27 27 27 26 26 26 27 27 28 28 28 29 29 29 29 29 28 28 28 28 28 29 30
21 21 22 23 23 23 23 23 23 23 24 24 25 25 26 26 26 27 27 27 27 27 27 27 27 27 28 29 30 31 33 33 34 36 36 35 33 30 26 24 24 24 22 19 19 17 12 11 11 10 8 7 11 17 23 26 26 25 26 26 25 24 25 26 26 25 25 25 25 26 27 27 27 27 28 27 27 26 26 26 25 25 24 24 25 26
21 21 23 23 23 23 23 23 24 24 25 25 26 26 27 27 27 26 26 25 26 26 26 26 26 27 29 31 32 32 32 33 34 35 35 34 33 30 27 25 24 24 24 22 22 20 15 11 9 8 8 8 13 20 25 24 22 23 25 27 26 24 23 23 23 24 24 24 25 25 26 27 27 26 25 25 24 23 22 22 22 21 21 20 21 21
21 22 23 23 24 23 24 24 25 25 26 26 26 26 26 26 26 26 25 25 25 25 25 26 26 27 28 29 29 29 30 31 32 32 32 33 32 31 29 26 24 23 22 22 21 19 17 14 12 11 11 10 11 13 18 20 22 23 24 20 19 22 25 24 24 25 25 25 24 24 24 25 25 24 24 23 23 22 21 21 21 20 19 18 17 17
22 23 23 24 24 24 24 25 25 26 26 26 26 26 25 25 25 25 25 25 25 25 25 25 25 25 25 26 27 27 28 29 29 30 31 31 32 31 29 27 24 22 21 21 20 19 19 17 16 17 18 16 15 15 17 19 22 24 23 16 16 22 27 26 25 24 24 24 24 23 23 23 24 24 23 23 23 22 22 21 21 20 19 18 17 16
23 23 23 24 25 25 25 26 26 26 26 26 25 24 25 25 25 25 25 25 25 26 26 25 24 24 24 25 25 25 25 26 27 28 29 29 29 29 27 26 24 22 21 20 20 20 20 19 19 18 17 17 15 13 12 19 23 23 21 20 22 24 26 26 25 24 23 23 24 24 23 23 22 23 23 24 24 23 22 21 20 18 17 16 16 17
23 23 24 24 25 25 26 26 26 25 25 25 25 25 25 25 25 25 25 24 25 25 25 25 24 23 22 22 23 24 24 25 25 26 26 26 25 24 22 22 22 22 22 20 19 20 21 20 19 18 18 18 16 13 11 16 20 22 22 22 21 17 10 18 24 26 25 25 25 25 24 23 23 23 24 24 24 22 21 19 17 16 15 15 15 16
23 24 24 25 25 25 25 25 25 25 25 25 24 25 25 25 25 25 24 24 25 25 24 24 23 22 20 20 21 23 24 23 23 23 22 21 19 18 18 19 20 21 22 20 18 18 19 19 18 18 19 18 16 15 14 15 17 19 21 22 21 17 11 15 21 25 25 25 25 25 25 25 25 25 24 23 22 21 20 19 17 16 14 13 13 13
23 24 24 24 25 25 24 24 25 25 25 25 24 24 25 25 24 24 24 24 24 24 24 23 21 19 16 18 20 22 22 22 21 20 18 16 15 16 18 19 20 20 20 20 19 18 16 16 17 18 19 18 17 16 15 15 16 19 21 23 22 21 21 22 22 22 21 22 23 25 26 27 25 23 20 19 19 19 18 18 17 17 16 15 13 12
23 24 24 24 24 24 24 25 25 25 25 25 25 25 25 25 24 24 24 24 23 23 23 22 20 16 13 15 18 20 20 20 19 17 15 15 17 19 20 19 19 19 19 20 20 19 18 17 17 18 17 16 16 16 17 17 16 16 19 22 22 21 21 21 21 21 21 21 22 24 26 26 23 19 15 15 16 17 18 18 18 18 19 18 18 16
23 23 24 24 24 24 25 25 25 25 25 25 25 25 25 24 24 24 24 23 22 22 22 21 19 17 15 16 17 17 16 16 17 17 17 17 19 20 20 19 19 20 20 20 19 19 19 19 19 19 16 12 10 11 15 17 16 16 17 20 20 19 18 19 20 22 22 21 21 23 25 23 19 16 15 15 15 15 17 18 20 21 21 21 20 19
23 23 24 24 24 24 24 24 24 24 24 25 25 25 25 25 24 23 22 23 22 21 20 20 18 17 16 17 17 17 16 15 15 16 18 19 19 19 19 19 20 20 20 20 19 18 18 17 17 16 15 13 9 8 11 15 17 17 18 18 18 16 16 17 20 22 22 22 22 23 23 20 16 14 14 14 13 13 16 18 21 23 23 23 22 20
23 23 23 24 24 24 24 24 24 24 24 25 25 26 26 25 24 23 22 22 22 21 19 18 17 16 15 15 16 16 16 16 16 16 18 19 19 19 19 19 20 20 20 20 20 19 19 17 14 11 10 13 13 12 13 15 17 18 18 17 16 15 15 17 19 21 21 22 23 23 22 19 17 16 15 11 8 9 14 18 21 23 25 25 23 22
23 23 23 23 23 23 24 24 24 24 24 24 25 25 25 26 24 23 22 21 20 19 19 18 17 15 13 14 15 16 15 15 15 16 17 18 18 18 18 19 19 19 18 18 17 17 17 16 14 11 9 9 11 13 13 15 17 18 18 17 16 15 15 16 18 20 21 21 21 22 22 20 19 18 16 11 8 8 11 16 20 23 25 26 26 24
23 23 23 23 23 23 24 24 24 24 24 24 24 24 24 24 23 23 22 21 20 19 19 18 16 15 13 14 15 16 16 15 15 15 16 17 17 17 17 17 17 16 13 10 10 11 10 8 8 9 9 10 10 11 12 14 15 16 15 16 17 17 15 15 17 20 21 20 20 20 20 20 19 19 17 13 9 7 8 11 16 22 25 27 27 27
Wind_Direction
297 299 300 300 300 298 297 297 297 297 296 296 296 295 295 294 294 294 294 296 297 297 297 296 294 292 290 288 286 285 285 286 288 290 291 292 292 292 293 293 294 294 292 291 289 288 287 287 288 288 289 289 288 288 288 288 287 287 286 286 286 286 286 288 289 290 290 288 286 283 282 280 280 281 283 285 286 287 286 285 284 283 283 281 279 276
298 298 298 299 298 297 297 298 298 296 296 296 296 296 296 296 295 295 296 296 297 298 298 296 294 291 288 286 285 284 285 287 288 290 291 291 291 292 293 294 294 294 293 291 290 289 289 289 289 289 289 289 288 288 287 287 288 288 288 288 287 287 287 288 289 289 288 287 285 283 281 279 279 281 283 284 285 285 283 281 280 280 279 278 276 274
298 298 298 299 298 297 298 299 299 297 296 296 297 297 297 296 296 296 296 297 298 298 297 294 291 288 285 283 283 284 286 287 288 289 290 291 292 293 294 294 294 294 293 292 291 290 289 289 289 288 288 287 287 287 287 288 288 289 288 288 287 287 288 289 289 288 287 286 284 283 282 280 280 281 282 283 282 281 279 278 277 277 276 274 274 273
296 297 298 300 299 298 297 298 298 298 297 297 297 297 297 296 295 295 296 298 299 299 297 293 289 286 285 285 286 287 288 288 289 290 291 292 293 294 294 294 294 293 293 292 291 290 290 289 288 288 288 287 287 288 288 289 289 288 288 287 287 288 289 289 289 288 287 285 284 283 282 281 281 281 281 280 279 278 277 275 275 274 273 273 273 274
294 296 299 300 300 298 297 297 297 297 297 297 297 297 297 296 296 296 298 301 301 299 297 294 291 289 289 289 290 290 290 291 291 292 293 294 294 294 294 294 293 293 293 292 292 291 290 290 289 289 289 289 289 289 289 289 288 288 288 288 289 289 289 289 288 287 286 284 283 282 282 281 281 280 280 279 277 276 275 274 274 273 273 273 274 275
296 297 299 298 297 296 297 296 296 297 298 298 298 298 298 298 298 299 301 302 301 299 297 296 295 294 293 292 292 292 293 293 294 294 294 294 293 293 293 293 293 293 293 293 292 292 291 290 290 290 290 290 289 290 289 289 289 289 289 290 290 289 289 288 287 286 285 284 283 282 281 281 280 279 279 278 277 276 276 275 275 274 273 273 274 274
299 298 297 296 294 293 294 294 295 297 298 300 301 302 302 302 302 301 301 300 299 298 299 298 298 297 295 295 294 295 295 295 294 294 293 293 292 292 292 292 292 293 293 292 292 291 291 291 291 291 290 290 290 290 290 290 290 290 290 289 289 289 288 287 286 285 285 284 283 282 280 279 278 277 277 276 276 276 276 276 275 273 271 271 272 273
299 297 294 293 292 292 292 292 293 296 300 302 304 305 305 304 303 302 301 300 299 300 301 302 301 299 298 297 297 297 296 295 294 293 292 291 291 291 291 292 292 292 292 292 292 292 292 292 292 291 291 291 291 291 291 290 290 289 289 289 289 288 287 287 286 285 284 283 282 280 279 277 276 275 275 275 275 276 276 275 274 272 270 270 272 273
294 293 292 290 290 291 293 294 296 300 303 303 303 304 303 303 303 304 304 304 303 304 304 304 302 300 299 298 297 296 294 293 291 290 290 290 290 290 291 291 292 292 292 292 292 293 293 293 292 292 292 292 291 291 290 290 289 289 289 289 288 288 287 286 285 284 283 282 281 279 278 276 275 275 275 275 275 275 274 274 272 271 270 271 273 275
289 288 288 289 288 290 294 300 304 305 305 303 301 299 299 300 303 306 307 306 306 306 305 303 301 299 298 297 296 294 293 292 290 289 288 288 288 289 290 290 291 291 292 293 294 294 294 294 293 293 292 291 291 290 289 289 289 289 289 288 288 287 286 285 285 284 283 282 281 280 278 277 276 275 274 274 273 272 271 271 271 271 272 274 276 277
287 286 286 290 296 301 302 304 305 306 306 304 301 299 299 301 305 308 308 307 307 306 304 301 298 297 296 296 295 294 293 291 290 288 288 287 287 288 288 289 290 291 292 294 294 294 293 292 292 291 291 290 289 289 289 289 289 288 288 287 287 286 286 285 285 284 283 282 281 279 278 277 276 275 273 272 270 269 268 269 270 273 275 277 278 278
286 289 296 305 309 309 307 306 306 306 306 306 304 303 304 305 307 308 307 305 304 304 302 299 296 294 293 294 294 294 292 290 289 288 288 287 286 286 288 291 293 294 295 295 294 293 292 291 291 290 290 289 289 288 288 288 288 287 287 287 286 286 286 285 284 284 282 281 279 278 277 277 276 275 272 269 268 268 268 270 273 276 278 279 279 278
293 306 311 310 309 308 308 308 308 307 307 306 306 306 307 308 309 307 304 301 300 299 298 297 295 293 292 292 292 291 290 287 286 287 287 287 289 293 297 298 297 297 297 296 294 292 291 291 291 290 289 288 288 287 288 287 287 287 286 286 286 286 285 285 284 283 282 280 279 278 278 277 276 274 272 269 269 271 273 276 278 279 280 279 278 277
312 313 311 309 308 308 308 307 306 306 305 305 305 306 306 307 307 306 302 299 297 296 295 294 293 293 293 292 291 288 286 285 286 288 289 291 296 301 303 302 300 298 297 295 293 292 291 291 290 289 288 287 286 286 286 286 286 286 286 285 285 285 285 285 284 283 282 281 280 280 280 279 278 276 275 274 275 277 279 281 281 281 280 278 277 276
314 313 310 308 307 307 306 305 304 303 303 304 305 306 306 306 305 303 300 297 296 296 295 294 293 294 295 295 293 291 288 287 290 295 298 298 300 302 303 302 299 297 295 293 292 291 291 290 289 287 287 286 285 285 286 286 286 286 286 285 286 286 286 286 285 284 282 282 281 281 282 282 282 281 281 281 281 282 282 282 282 281 279 277 276 276
312 311 307 305 304 304 304 304 303 303 304 305 306 306 305 304 302 301 298 297 297 298 297 297 297 297 298 300 300 298 296 299 302 303 303 301 300 301 302 300 297 295 293 292 291 290 291 289 287 286 285 285 285 285 286 286 286 286 286 285 286 286 287 287 287 286 284 283 283 283 284 285 285 285 285 284 284 283 283 282 281 279 278 277 277 277
310 307 305 304 303 303 304 304 303 303 304 304 304 303 302 300 300 299 298 298 299 300 300 301 300 299 302 304 304 305 308 311 309 305 302 300 299 300 300 298 294 292 292 291 290 289 289 287 286 285 285 284 285 286 287 287 287 287 286 286 287 288 289 290 290 290 289 288 287 287 287 287 286 286 285 284 283 282 281 281 279 277 276 276 277 277
306 305 305 303 303 303 304 304 304 303 303 303 302 302 301 299 299 300 300 301 302 303 303 303 300 299 302 304 304 305 308 309 306 303 300 298 298 299 299 296 292 290 291 290 289 288 287 286 286 285 284 284 285 286 287 288 288 288 288 288 289 290 290 291 291 291 291 291 290 289 288 287 286 285 284 282 281 280 279 278 276 274 275 276 277 277
303 303 303 303 302 302 302 302 302 302 301 301 302 303 302 303 304 305 304 303 302 302 301 300 298 297 298 299 300 302 304 304 302 299 297 296 297 299 299 296 292 289 289 288 288 287 285 283 283 282 282 281 283 286 289 290 290 290 290 291 291 291 292 292 291 291 291 290 289 288 287 286 285 283 282 281 280 279 277 275 273 273 274 275 276 276
301 301 301 301 301 301 300 299 298 298 299 301 304 306 307 307 307 305 302 301 299 298 297 296 295 295 296 296 297 299 302 302 300 298 296 295 296 297 297 295 291 288 287 287 286 284 283 281 280 280 282 284 287 290 292 292 292 291 292 292 292 292 292 292 292 291 290 290 289 288 287 285 284 283 282 280 278 276 274 272 271 272 274 275 275 275
299 298 298 298 298 297 296 295 295 297 300 306 309 310 307 306 304 302 300 299 298 296 295 293 293 294 296 295 296 298 301 302 300 297 295 294 294 294 295 293 289 286 286 287 288 286 284 282 282 284 287 290 292 292 291 291 291 291 291 292 292 292 292 292 292 291 291 290 289 288 286 285 284 283 281 279 276 274 272 272 273 274 275 275 274 273
295 295 296 295 293 290 289 290 293 300 306 310 309 306 304 302 301 299 299 298 297 296 295 293 293 293 292 291 292 295 298 298 295 293 293 291 291 292 294 294 291 288 287 288 288 287 286 286 287 289 291 291 290 290 289 289 289 289 290 290 290 291 291 292 292 292 291 291 290 288 287 286 285 283 280 279 278 278 278 278 278 277 276 275 273 272
293 293 293 292 290 287 288 293 299 305 308 307 305 302 300 298 297 297 298 297 296 295 294 292 291 289 287 287 290 294 296 295 291 288 288 285 288 292 295 295 292 289 288 288 291 292 292 291 291 290 289 289 288 288 287 287 287 288 288 288 289 289 290 291 291 292 292 291 291 289 288 287 286 284 284 284 285 285 285 283 282 280 277 275 272 271
295 293 293 292 292 294 298 303 305 307 307 305 303 302 300 298 296 295 296 295 294 293 291 289 287 286 287 290 294 296 296 295 292 289 286 283 286 291 295 295 293 291 291 292 294 295 294 293 291 290 288 287 286 286 286 286 286 287 287 287 287 288 288 289 289 290 290 290 290 289 288 287 287 287 288 288 288 287 286 284 282 279 277 274 271 270
299 298 298 299 301 303 304 305 305 305 305 305 305 304 303 301 299 297 295 293 291 290 287 286 286 289 293 297 298 298 298 297 295 290 286 286 289 291 294 295 295 293 293 294 295 295 294 292 291 290 288 286 285 284 284 285 285 286 286 285 285 286 286 286 286 287 287 287 286 286 286 286 286 287 287 287 286 284 283 281 279 277 275 272 270 268
303 303 303 303 304 304 304 304 304 304 305 305 305 305 304 302 300 297 294 292 290 290 289 289 290 294 297 298 297 297 298 299 297 292 287 288 290 292 294 295 294 293 293 294 295 295 293 292 292 291 289 286 285 283 283 283 283 283 284 284 284 284 285 285 285 285 285 284 284 283 284 284 284 283 283 282 280 278 277 276 275 274 272 271 269 266
305 304 304 303 303 303 303 304 304 304 304 304 303 303 303 302 299 296 293 292 293 294 294 293 292 293 295 295 295 297 299 300 298 294 289 288 288 290 293 295 295 294 294 294 295 294 292 291 290 290 288 285 283 282 281 280 280 281 283 284 285 285 285 285 285 285 284 284 283 283 282 282 281 279 278 276 275 274 274 273 273 272 271 269 267 265
306 305 304 304 303 303 304 304 304 304 303 303 303 302 302 300 297 294 293 295 296 295 294 292 292 293 293 291 295 298 299 298 297 295 293 290 288 288 293 296 297 296 295 295 294 293 291 289 287 287 286 284 283 282 281 280 280 281 283 284 285 285 285 284 284 284 283 282 281 281 280 279 277 276 276 276 276 277 277 276 275 274 272 270 268 265
308 306 305 304 304 304 304 303 303 302 302 302 302 302 301 298 294 292 292 294 294 293 292 291 292 292 293 294 297 297 297 297 298 299 300 297 292 290 294 297 297 297 297 297 296 295 292 290 288 287 286 287 286 285 285 284 283 283 283 283 283 283 282 281 281 281 280 280 279 279 278 277 277 278 279 280 281 280 280 279 277 276 275 272 269 266
309 308 306 305 305 304 304 303 302 302 302 301 301 301 299 296 291 289 289 291 290 289 291 293 294 294 295 296 296 295 295 298 301 305 306 302 295 293 295 296 296 297 298 299 298 295 294 294 294 294 292 292 292 291 290 289 287 284 282 282 281 280 280 280 280 281 281 280 279 278 278 279 280 282 283 283 282 280 278 276 275 273 272 269 266 263
310 308 307 306 306 305 305 304 303 302 302 301 300 299 298 295 291 288 288 289 288 288 290 292 293 294 294 294 293 291 294 300 303 306 306 300 294 292 295 295 295 296 298 299 298 295 297 298 300 300 299 297 295 293 292 290 288 285 283 282 281 281 282 283 284 284 283 282 281 281 282 282 283 283 283 281 280 278 276 274 272 269 266 263 260 257
309 308 307 307 306 306 305 305 303 303 302 302 301 299 299 296 294 292 290 289 288 288 289 291 291 291 290 288 286 287 292 298 301 303 303 297 293 292 295 294 294 295 297 296 294 293 298 301 304 303 301 298 296 294 293 290 287 285 284 284 282 283 287 288 288 287 286 285 285 284 284 284 283 282 281 280 279 277 276 273 271 267 264 259 254 251
307 307 307 306 306 305 305 304 304 303 303 303 302 302 301 299 298 296 294 292 290 289 289 290 290 290 289 287 285 286 289 293 297 300 300 297 294 293 295 294 294 295 296 295 293 290 290 292 299 301 300 298 297 295 293 291 288 286 286 286 285 286 290 291 291 289 288 287 287 286 285 284 283 282 281 279 278 276 275 273 270 266 263 259 254 249
306 306 306 306 306 306 305 305 305 305 305 304 304 304 303 302 301 300 298 295 292 291 290 289 289 290 290 289 288 288 290 292 296 298 300 297 294 293 295 294 294 295 296 295 294 293 291 291 294 298 299 299 298 296 295 292 291 292 293 292 291 291 292 292 292 291 289 288 287 286 285 284 283 282 281 279 278 276 273 271 268 266 262 259 254 249
306 305 306 307 308 308 308 308 308 308 308 307 307 306 306 304 303 302 300 297 296 294 292 290 288 288 288 289 289 290 292 294 296 298 298 296 293 292 293 293 294 295 294 293 294 293 290 292 294 295 295 298 298 298 297 297 297 298 299 297 295 293 292 291 291 290 288 287 286 284 284 283 283 282 281 280 278 276 273 271 269 266 263 259 255 250
306 306 308 310 311 311 311 311 311 311 310 309 309 308 307 306 305 303 301 299 297 296 294 290 288 287 286 285 285 286 289 292 295 296 295 293 291 291 291 291 292 292 291 291 292 292 289 290 293 295 294 292 297 301 302 302 303 303 302 300 298 295 292 291 289 288 287 285 284 283 283 283 283 282 281 281 279 277 275 274 271 268 264 260 255 251
306 308 311 313 314 314 313 313 313 312 312 311 310 309 308 307 305 304 302 300 297 296 294 292 289 287 285 283 283 283 285 289 291 292 291 290 289 288 288 288 289 290 289 289 291 292 292 290 291 292 291 291 297 303 305 306 306 306 304 302 299 297 294 292 290 288 286 284 283 283 284 284 283 283 282 282 282 280 278 276 273 269 265 261 257 252
310 312 314 316 316 316 315 314 313 313 312 311 311 310 308 307 305 303 301 299 297 295 294 293 290 288 288 286 284 283 284 285 287 288 289 289 288 286 285 285 286 287 286 286 287 289 290 289 292 295 297 299 300 302 303 305 307 307 306 304 301 297 295 294 293 291 288 286 286 286 287 287 286 285 285 285 284 282 280 278 275 271 266 262 258 254
314 315 316 316 316 316 315 313 313 312 312 310 309 308 307 306 304 303 301 299 297 296 294 292 290 289 289 288 287 286 286 286 287 288 289 289 287 285 284 284 285 286 286 285 284 284 285 287 293 301 307 305 302 302 302 304 305 306 306 306 305 302 299 298 297 295 292 290 289 290 291 291 290 289 288 287 285 282 279 277 275 272 267 262 258 255
316 316 316 316 315 315 313 312 311 311 311 310 309 308 307 306 306 305 304 302 300 299 297 295 293 291 290 289 288 288 288 288 289 289 289 288 287 286 284 284 284 285 285 285 283 283 285 290 297 301 302 300 298 299 302 303 304 304 305 307 307 306 305 304 301 299 297 295 293 293 293 295 294 292 291 290 287 284 281 279 277 275 270 261 254 250
317 316 315 315 315 314 313 312 311 311 310 310 310 309 309 308 308 308 307 306 305 304 302 300 298 295 292 291 290 290 290 290 290 290 290 290 290 288 285 284 284 284 287 289 290 291 294 297 299 299 298 296 295 297 299 300 301 301 302 302 302 303 305 305 303 303 303 302 301 299 298 298 298 297 297 295 293 291 289 286 283 281 277 268 256 246
316 315 314 314 314 314 313 313 312 312 311 311 310 310 309 309 309 308 308 308 308 308 307 305 302 299 297 296 295 295 295 294 294 294 293 293 292 291 288 287 288 290 293 296 298 299 299 298 297 295 293 294 295 297 297 297 298 298 299 298 300 303 306 308 309 309 309 308 307 306 304 303 302 302 302 302 301 301 300 298 294 289 282 273 262 252
315 314 313 313 313 313 313 313 314 314 314 313 311 310 309 309 309 308 308 307 307 307 307 305 303 300 298 298 299 301 301 300 298 297 297 296 296 295 295 297 300 301 301 301 301 301 299 297 294 291 291 292 293 293 292 294 297 298 299 300 302 305 308 311 312 313 313 311 310 309 309 308 307 307 307 306 307 308 310 310 308 303 294 284 273 264
314 314 314 314 314 314 315 315 315 315 314 313 311 310 309 309 309 308 308 306 306 306 305 304 303 301 299 300 303 305 306 304 303 302 301 301 303 307 310 310 309 307 305 303 301 301 300 298 295 292 292 292 291 290 289 291 295 298 300 302 303 302 298 301 306 309 310 311 312 312 313 312 312 312 311 311 313 316 319 322 323 322 318 311 299 286
315 315 315 315 316 316 316 315 315 315 314 312 310 309 310 310 310 309 308 306 305 305 304 304 304 304 304 305 307 308 309 308 307 307 308 313 318 321 320 316 313 311 309 305 301 298 296 295 294 294 294 292 289 286 285 289 293 297 301 305 305 303 299 299 301 304 306 309 311 314 317 318 317 315 313 314 317 322 327 331 333 334 335 335 331 323
317 317 316 316 316 316 315 315 315 315 314 312 311 311 311 312 311 310 308 306 305 304 304 305 305 305 305 306 308 310 310 311 311 314 319 324 326 325 323 320 318 316 314 310 305 300 294 290 289 290 292 291 288 285 284 287 291 296 300 306 308 308 307 307 307 307 308 309 311 316 321 324 323 320 317 318 321 327 334 340 343 344 345 346 345 343
318 317 316 316 316 316 315 315 315 315 315 313 312 312 312 313 312 311 310 308 306 305 306 307 306 303 302 305 307 308 309 311 315 320 326 328 327 326 324 324 323 322 319 315 311 306 300 295 290 286 283 283 286 288 289 291 293 297 301 306 309 310 310 311 313 315 316 315 316 321 327 329 328 327 326 326 328 332 340 347 351 354 353 352 350 349
318 317 316 316 315 315 315 316 316 316 315 314 313 313 314 314 314 312 310 310 309 308 307 308 307 304 304 305 306 307 309 312 318 324 327 328 327 326 326 326 327 326 325 323 321 317 314 312 305 294 282 272 271 285 291 296 300 303 304 306 308 309 310 312 316 320 323 324 327 330 333 334 333 332 330 330 333 339 345 350 355 358 359 357 355 352
317 316 315 315 314 314 314 315 316 315 314 313 313 314 315 316 315 313 311 311 310 309 308 307 306 306 307 308 308 310 314 319 322 325 326 326 326 327 328 330 330 330 330 330 331 332 333 335 333 322 299 276 271 278 289 300 305 308 309 309 309 310 312 315 320 324 328 331 335 340 343 343 342 340 337 334 333 341 348 354 358 0 1 0 359 357
316 315 315 315 314 314 314 314 315 314 312 312 313 313 314 315 315 314 313 312 311 309 308 307 306 307 308 311 314 317 321 324 324 324 325 325 326 328 329 331 333 333 333 335 337 339 341 342 345 345 333 305 288 287 295 303 310 314 316 317 318 319 319 321 324 329 332 334 339 344 348 350 351 351 349 346 339 341 351 358 1 2 2 2 2 2
316 315 315 314 314 313 313 313 313 312 311 311 312 313 313 314 315 315 316 315 313 311 310 308 307 309 312 315 319 321 323 323 322 322 323 325 327 328 329 331 333 334 335 337 339 342 342 339 338 338 338 340 332 320 314 312 315 319 323 326 329 330 329 329 331 334 337 339 343 347 351 353 355 356 355 352 346 341 348 355 360 1 2 4 5 5